Drummond Island, MI

3:48 AM EDT on August 21, 2017 (GMT -0400)
Drummond Island

Weather History for KDRM - January, 2013

Change the Weather History Date:

Saturday, January 19, 2013

  Actual Average (KCIU) Record (KCIU)
Temperature  
Mean Temperature 26 °F -  
Max Temperature 33 °F 23 °F 55 °F (2016)
Min Temperature 19 °F -1 °F -33 °F (1984)
Degree Days  
Heating Degree Days 39    
Moisture  
Dew Point 25 °F    
Average Humidity 96    
Maximum Humidity 100    
Minimum Humidity 89    
Precipitation  
Precipitation 0.00 in - - ()
Sea Level Pressure  
Sea Level Pressure 29.61 in    
Wind  
Wind Speed 2 mph (ENE)    
Max Wind Speed 14 mph    
Max Gust Speed 22 mph    
Visibility 5 miles    
Events Rain , Snow    
Averages and records for this station are not official NWS values.
T = Trace of Precipitation, MM = Missing Value Source: NWS Daily Summary

Daily Weather History Graph

Daily Weather History Graph

Search for Another Location

Airport or City:

Trip Planner

Search our weather history database for the weather conditions in past years. The results will help you decide how hot, cold, wet, or windy it might be!

Date:

Astronomy

Jan. 19, 2013 Rise Set
Actual Time 8:10 AM EST 5:22 PM EST
Civil Twilight 7:36 AM EST 5:55 PM EST
Nautical Twilight 7:00 AM EST 6:31 PM EST
Astronomical Twilight 6:24 AM EST 7:07 PM EST
Moon 11:51 AM EST (1/19) 1:38 AM EST (1/19)
Length of Visible Light 10h 18m
Length of Day
9h 12m
First Quarter, 57% of the Moon is Illuminated
Jan 19
First Quarter
Jan 26
Full
Feb 3
Last Quarter
Feb 10
New
Feb 17
First Quarter

Hourly Weather History & Observations

Time (EST) Temp. Windchill Dew Point Humidity Pressure Visibility Wind Dir Wind Speed Gust Speed Precip Events Conditions
12:15 AM 26.2 °F - 26.2 °F 100% 29.70 in 2.5 mi Calm Calm - N/A Snow Light Snow
12:35 AM 27.3 °F - 27.1 °F 99% 29.70 in 3.0 mi Calm Calm - N/A Snow Light Snow
12:56 AM 26.1 °F - 25.9 °F 99% 29.70 in 5.0 mi Calm Calm - N/A Snow Light Snow
1:15 AM 27.5 °F - 26.8 °F 97% 29.70 in 5.0 mi Calm Calm - N/A Snow Light Snow
1:35 AM 26.4 °F - 25.5 °F 96% 29.70 in 5.0 mi Calm Calm - N/A Snow Light Snow
1:56 AM 26.1 °F - 25.7 °F 99% 29.70 in 4.0 mi Calm Calm - N/A Snow Light Snow
2:15 AM 26.1 °F - 26.1 °F 100% 29.70 in 4.0 mi Calm Calm - N/A Snow Light Snow
2:36 AM 26.1 °F - 26.1 °F 100% 29.70 in 4.0 mi Calm Calm - N/A Snow Light Snow
2:56 AM 26.1 °F - 26.1 °F 100% 29.71 in 2.0 mi Calm Calm - N/A Snow Light Snow
3:15 AM 26.4 °F - 26.4 °F 100% 29.71 in 1.8 mi Calm Calm - N/A Snow Light Snow
3:36 AM 26.4 °F - 26.4 °F 100% 29.71 in 1.5 mi Calm Calm - N/A Snow Light Snow
3:56 AM 26.8 °F - 26.8 °F 100% 29.72 in 3.0 mi Calm Calm - N/A Snow Light Snow
4:15 AM 27.5 °F - 27.5 °F 100% 29.71 in 3.0 mi Calm Calm - N/A Snow Light Snow
4:36 AM 27.9 °F - 27.3 °F 98% 29.72 in 4.0 mi Calm Calm - N/A Snow Light Snow
4:55 AM 24.1 °F 17.0 °F 23.5 °F 98% 29.72 in 5.0 mi North 5.8 mph - N/A Snow Light Snow
5:15 AM 23.4 °F 18.9 °F 23.0 °F 99% 29.71 in 10.0 mi North 3.5 mph - N/A   Overcast
5:36 AM 23.5 °F - 23.4 °F 99% 29.72 in 10.0 mi Calm Calm - N/A   Overcast
5:55 AM 23.4 °F 18.9 °F 23.0 °F 99% 29.73 in 10.0 mi North 3.5 mph - N/A   Overcast
6:16 AM 23.0 °F 18.4 °F 22.5 °F 98% 29.74 in 10.0 mi North 3.5 mph - N/A   Overcast
6:35 AM 22.8 °F - 22.1 °F 97% 29.75 in 10.0 mi Calm Calm - N/A   Overcast
6:55 AM 22.1 °F 15.9 °F 21.2 °F 96% 29.76 in 10.0 mi North 4.6 mph - N/A   Overcast
7:16 AM 21.6 °F 15.3 °F 20.3 °F 95% 29.76 in 10.0 mi North 4.6 mph - N/A   Overcast
7:35 AM 21.2 °F 14.9 °F 19.6 °F 93% 29.77 in 10.0 mi North 4.6 mph - N/A   Overcast
7:55 AM 20.3 °F 15.4 °F 18.7 °F 93% 29.78 in 10.0 mi North 3.5 mph - N/A   Overcast
8:16 AM 19.9 °F 14.9 °F 18.1 °F 93% 29.78 in 10.0 mi North 3.5 mph - N/A   Overcast
8:35 AM 19.9 °F - 18.0 °F 92% 29.78 in 10.0 mi Calm Calm - N/A   Overcast
8:56 AM 19.9 °F - 18.1 °F 93% 29.80 in 10.0 mi Calm Calm - N/A   Overcast
9:16 AM 20.1 °F - 18.3 °F 93% 29.78 in 10.0 mi Calm Calm - N/A   Overcast
9:35 AM 20.8 °F - 18.9 °F 92% 29.79 in 10.0 mi Calm Calm - N/A   Overcast
9:56 AM 21.6 °F - 19.0 °F 90% 29.80 in 10.0 mi Calm Calm - N/A   Overcast
10:15 AM 21.7 °F - 19.0 °F 89% 29.80 in 10.0 mi Calm Calm - N/A   Overcast
10:35 AM 22.1 °F 17.4 °F 19.4 °F 89% 29.80 in 10.0 mi ENE 3.5 mph - N/A   Overcast
10:56 AM 22.6 °F 16.5 °F 20.1 °F 90% 29.78 in 10.0 mi East 4.6 mph - N/A   Overcast
11:15 AM 23.4 °F 18.9 °F 21.0 °F 91% 29.78 in 5.0 mi East 3.5 mph - N/A Snow Light Snow
11:36 AM 23.9 °F 16.8 °F 21.6 °F 91% 29.76 in 7.0 mi East 5.8 mph - N/A   Overcast
11:55 AM 23.9 °F 16.8 °F 21.2 °F 89% 29.73 in 10.0 mi East 5.8 mph - N/A   Overcast
12:15 PM 24.3 °F 17.3 °F 21.7 °F 90% 29.71 in 10.0 mi East 5.8 mph - N/A   Overcast
12:36 PM 24.6 °F 20.3 °F 22.3 °F 91% 29.70 in 10.0 mi East 3.5 mph - N/A   Overcast
12:55 PM 24.8 °F 19.1 °F 22.6 °F 91% 29.68 in 10.0 mi East 4.6 mph - N/A   Overcast
1:16 PM 24.8 °F 17.9 °F 22.8 °F 92% 29.67 in 10.0 mi ESE 5.8 mph - N/A   Overcast
1:35 PM 24.6 °F 17.7 °F 23.0 °F 94% 29.67 in 10.0 mi ESE 5.8 mph - N/A   Overcast
1:56 PM 24.8 °F 19.1 °F 23.7 °F 96% 29.64 in 2.0 mi ESE 4.6 mph - N/A Snow Light Snow
2:15 PM 25.5 °F 19.9 °F 24.4 °F 96% 29.63 in 1.0 mi ESE 4.6 mph - N/A Snow Light Snow
2:36 PM 26.1 °F 21.9 °F 25.0 °F 96% 29.61 in 1.0 mi ESE 3.5 mph - N/A Snow Light Snow
2:56 PM 26.6 °F 19.1 °F 25.5 °F 96% 29.58 in 0.8 mi SE 6.9 mph - N/A Snow Light Snow
3:15 PM 26.6 °F 20.0 °F 25.7 °F 96% 29.57 in 1.0 mi ESE 5.8 mph - N/A Snow Light Snow
3:36 PM 26.6 °F 21.2 °F 25.7 °F 96% 29.56 in 1.2 mi ESE 4.6 mph - N/A Snow Light Snow
3:56 PM 27.0 °F 23.0 °F 26.2 °F 97% 29.55 in 1.2 mi ESE 3.5 mph - N/A Snow Light Snow
4:15 PM 27.1 °F - 26.4 °F 97% 29.53 in 1.2 mi Calm Calm - N/A Snow Light Snow
4:36 PM 26.6 °F 22.6 °F 26.1 °F 98% 29.52 in 1.0 mi East 3.5 mph - N/A Snow Light Snow
4:55 PM 26.4 °F - 25.9 °F 98% 29.50 in 0.8 mi Calm Calm - N/A Snow Light Snow
5:15 PM 26.2 °F 22.1 °F 25.7 °F 98% 29.49 in 1.8 mi ENE 3.5 mph - N/A Snow Light Snow
5:36 PM 26.6 °F 21.2 °F 26.2 °F 99% 29.48 in 10.0 mi East 4.6 mph - N/A   Overcast
5:55 PM 26.6 °F 22.6 °F 26.2 °F 99% 29.46 in 2.0 mi ENE 3.5 mph - N/A Snow Light Snow
6:15 PM 27.0 °F 23.0 °F 26.6 °F 99% 29.45 in 0.5 mi ENE 3.5 mph - N/A Snow Heavy Snow
6:36 PM 27.0 °F 21.6 °F 26.6 °F 99% 29.43 in 1.8 mi ENE 4.6 mph - N/A Snow Light Snow
6:55 PM 27.0 °F - 26.6 °F 99% 29.42 in 4.0 mi Calm Calm - N/A Snow Light Snow
7:15 PM 27.7 °F 22.4 °F 27.5 °F 99% 29.40 in 3.0 mi East 4.6 mph - N/A Snow Light Snow
7:36 PM 29.1 °F - 29.1 °F 100% 29.38 in 4.0 mi Calm Calm - N/A Snow Light Snow
7:55 PM 32.4 °F 26.0 °F 32.4 °F 100% 29.36 in 4.0 mi SSW 6.9 mph - N/A Snow Light Snow
8:16 PM 33.8 °F 28.6 °F 33.8 °F 100% 29.35 in 4.0 mi SW 5.8 mph - N/A Rain Light Rain
8:36 PM 32.9 °F 28.5 °F 32.9 °F 100% 29.35 in 2.0 mi SW 4.6 mph - N/A Snow Light Snow
8:55 PM 32.5 °F 28.1 °F 32.5 °F 100% 29.33 in 1.8 mi SW 4.6 mph - N/A Snow Light Snow
9:16 PM 32.5 °F 27.1 °F 32.5 °F 100% 29.31 in 2.5 mi SW 5.8 mph - N/A Snow Light Snow
9:35 PM 32.4 °F 26.0 °F 32.4 °F 100% 29.30 in 1.0 mi SW 6.9 mph - N/A Snow Snow
9:55 PM 32.5 °F 25.5 °F 32.5 °F 100% 29.32 in 1.5 mi WNW 8.1 mph - N/A Snow Light Snow
10:15 PM 31.3 °F 21.1 °F 31.3 °F 100% 29.35 in 0.8 mi West 13.8 mph 21.9 mph N/A Snow Snow
10:36 PM 30.2 °F 21.3 °F 30.2 °F 100% 29.33 in 1.8 mi WNW 10.4 mph 19.6 mph N/A Snow Light Snow
10:56 PM 30.0 °F 21.1 °F 29.5 °F 98% 29.33 in 2.5 mi WNW 10.4 mph 18.4 mph N/A Snow Light Snow
11:15 PM 28.9 °F 20.4 °F 27.1 °F 93% 29.33 in 7.0 mi WNW 9.2 mph 19.6 mph N/A   Overcast
11:36 PM 28.2 °F 18.9 °F 27.0 °F 95% 29.33 in 10.0 mi WNW 10.4 mph 16.1 mph N/A   Scattered Clouds
11:55 PM 28.4 °F 19.7 °F 27.1 °F 95% 29.33 in 10.0 mi WNW 9.2 mph 17.3 mph N/A   Scattered Clouds